TimePST,TemperatureF,Dew PointF,Humidity,Sea Level PressureIn,VisibilityMPH,Wind Direction,Wind SpeedMPH,Gust SpeedMPH,PrecipitationIn,Events,Conditions,WindDirDegrees,DateUTC
12:15 AM,41.0,37.4,87,30.22,10.0,West,8.1,-,N/A,,Clear,280,2013-03-09 08:15:00
12:35 AM,39.2,37.4,93,30.24,10.0,WNW,3.5,-,N/A,,Clear,300,2013-03-09 08:35:00
12:55 AM,39.2,35.6,87,30.24,10.0,West,4.6,-,N/A,,Clear,280,2013-03-09 08:55:00
1:15 AM,37.4,35.6,93,30.25,10.0,West,4.6,-,N/A,,Clear,270,2013-03-09 09:15:00
1:35 AM,37.4,35.6,93,30.26,10.0,WSW,4.6,-,N/A,,Clear,240,2013-03-09 09:35:00
1:55 AM,35.6,32.0,87,30.27,10.0,SW,3.5,-,N/A,,Clear,220,2013-03-09 09:55:00
2:15 AM,37.4,35.6,93,30.27,10.0,West,5.8,-,N/A,,Clear,260,2013-03-09 10:15:00
2:35 AM,37.4,33.8,87,30.28,10.0,West,3.5,-,N/A,,Clear,280,2013-03-09 10:35:00
2:55 AM,35.6,33.8,93,30.28,10.0,WNW,4.6,-,N/A,,Clear,290,2013-03-09 10:55:00
3:15 AM,33.8,30.2,87,30.29,10.0,Calm,Calm,-,N/A,,Clear,0,2013-03-09 11:15:00
3:35 AM,32.0,30.2,93,30.30,10.0,Calm,Calm,-,N/A,,Clear,0,2013-03-09 11:35:00
3:55 AM,32.0,30.2,93,30.31,10.0,WSW,3.5,-,N/A,,Clear,250,2013-03-09 11:55:00
4:15 AM,32.0,30.2,93,30.32,10.0,Calm,Calm,-,N/A,,Clear,0,2013-03-09 12:15:00
4:35 AM,30.2,28.4,93,30.32,10.0,Calm,Calm,-,N/A,,Clear,0,2013-03-09 12:35:00
4:55 AM,32.0,28.4,87,30.33,10.0,Calm,Calm,-,N/A,,Clear,0,2013-03-09 12:55:00
5:15 AM,30.2,28.4,93,30.34,3.0,Calm,Calm,-,N/A,,Partly Cloudy,0,2013-03-09 13:15:00
5:35 AM,30.2,30.2,100,30.34,8.0,Calm,Calm,-,N/A,,Mostly Cloudy,0,2013-03-09 13:35:00
5:55 AM,33.8,33.8,100,30.35,10.0,Calm,Calm,-,N/A,,Overcast,0,2013-03-09 13:55:00
6:15 AM,32.0,30.2,93,30.36,0.8,Calm,Calm,-,N/A,,Overcast,0,2013-03-09 14:15:00
6:35 AM,32.0,30.2,93,30.36,0.2,Calm,Calm,-,N/A,,Overcast,0,2013-03-09 14:35:00
6:55 AM,32.0,30.2,93,30.37,0.2,Calm,Calm,-,N/A,,Overcast,0,2013-03-09 14:55:00
7:15 AM,32.0,30.2,93,30.38,0.5,Calm,Calm,-,N/A,,Overcast,0,2013-03-09 15:15:00
7:35 AM,32.0,32.0,100,30.39,0.2,Calm,Calm,-,N/A,,Overcast,0,2013-03-09 15:35:00
7:55 AM,33.8,32.0,93,30.40,0.2,Calm,Calm,-,N/A,,Overcast,0,2013-03-09 15:55:00
8:15 AM,33.8,33.8,100,30.42,0.2,Calm,Calm,-,N/A,,Overcast,0,2013-03-09 16:15:00
8:35 AM,35.6,35.6,100,30.43,0.2,Calm,Calm,-,N/A,,Overcast,0,2013-03-09 16:35:00
8:55 AM,37.4,37.4,100,30.44,2.5,Calm,Calm,-,N/A,,Overcast,0,2013-03-09 16:55:00
9:15 AM,39.2,39.2,100,30.44,10.0,ESE,5.8,-,N/A,,Scattered Clouds,120,2013-03-09 17:15:00
9:35 AM,42.8,39.2,87,30.44,10.0,ESE,5.8,-,N/A,,Clear,120,2013-03-09 17:35:00
9:55 AM,44.6,39.2,81,30.44,10.0,SE,8.1,-,N/A,,Clear,130,2013-03-09 17:55:00
10:15 AM,46.4,39.2,76,30.44,10.0,SE,10.4,-,N/A,,Clear,140,2013-03-09 18:15:00
10:35 AM,48.2,39.2,71,30.45,10.0,SSE,9.2,-,N/A,,Clear,150,2013-03-09 18:35:00
10:55 AM,48.2,39.2,71,30.45,10.0,SE,6.9,-,N/A,,Clear,140,2013-03-09 18:55:00
11:15 AM,48.2,39.2,71,30.46,10.0,SE,6.9,-,N/A,,Clear,140,2013-03-09 19:15:00
11:35 AM,50.0,41.0,71,30.46,10.0,SE,4.6,-,N/A,,Clear,130,2013-03-09 19:35:00
11:55 AM,51.8,42.8,71,30.46,10.0,SSE,4.6,-,N/A,,Clear,150,2013-03-09 19:55:00
12:15 PM,53.6,41.0,62,30.46,10.0,SE,4.6,-,N/A,,Clear,140,2013-03-09 20:15:00
12:35 PM,53.6,39.2,58,30.46,10.0,ESE,5.8,-,N/A,,Clear,120,2013-03-09 20:35:00
12:55 PM,55.4,39.2,54,30.46,10.0,East,3.5,-,N/A,,Clear,100,2013-03-09 20:55:00
1:15 PM,57.2,39.2,51,30.46,10.0,ESE,4.6,-,N/A,,Clear,120,2013-03-09 21:15:00
1:35 PM,57.2,39.2,51,30.45,10.0,Calm,Calm,-,N/A,,Clear,0,2013-03-09 21:35:00
1:55 PM,59.0,41.0,51,30.45,10.0,SE,5.8,-,N/A,,Clear,130,2013-03-09 21:55:00
2:15 PM,60.8,41.0,48,30.44,10.0,East,4.6,-,N/A,,Clear,100,2013-03-09 22:15:00
2:35 PM,60.8,39.2,45,30.44,10.0,SE,3.5,-,N/A,,Clear,130,2013-03-09 22:35:00
2:55 PM,60.8,39.2,45,30.44,10.0,SE,3.5,-,N/A,,Clear,140,2013-03-09 22:55:00
3:15 PM,60.8,37.4,42,30.44,10.0,ENE,4.6,-,N/A,,Clear,70,2013-03-09 23:15:00
3:35 PM,62.6,37.4,39,30.44,10.0,ESE,4.6,-,N/A,,Clear,110,2013-03-09 23:35:00
3:55 PM,62.6,37.4,39,30.44,10.0,East,3.5,-,N/A,,Clear,90,2013-03-09 23:55:00
4:15 PM,62.6,37.4,39,30.43,10.0,East,4.6,-,N/A,,Clear,80,2013-03-10 00:15:00
4:35 PM,62.6,37.4,39,30.43,10.0,East,3.5,-,N/A,,Clear,90,2013-03-10 00:35:00
4:55 PM,60.8,37.4,42,30.43,10.0,East,3.5,-,N/A,,Clear,100,2013-03-10 00:55:00
5:15 PM,57.2,37.4,48,30.44,10.0,East,3.5,-,N/A,,Clear,90,2013-03-10 01:15:00
5:35 PM,57.2,37.4,48,30.44,10.0,East,4.6,-,N/A,,Clear,90,2013-03-10 01:35:00
5:55 PM,55.4,37.4,51,30.45,10.0,East,3.5,-,N/A,,Clear,80,2013-03-10 01:55:00
6:15 PM,55.4,33.8,44,30.45,10.0,Calm,Calm,-,N/A,,Clear,0,2013-03-10 02:15:00
6:35 PM,50.0,37.4,62,30.46,10.0,WNW,6.9,-,N/A,,Clear,290,2013-03-10 02:35:00
6:55 PM,50.0,39.2,66,30.47,10.0,WNW,8.1,-,N/A,,Clear,300,2013-03-10 02:55:00
7:15 PM,48.2,39.2,71,30.47,10.0,West,5.8,-,N/A,,Clear,280,2013-03-10 03:15:00
7:35 PM,46.4,39.2,76,30.48,10.0,West,6.9,-,N/A,,Clear,280,2013-03-10 03:35:00
7:55 PM,46.4,39.2,76,30.48,10.0,West,8.1,-,N/A,,Clear,280,2013-03-10 03:55:00
8:15 PM,44.6,37.4,76,30.48,10.0,West,8.1,-,N/A,,Clear,280,2013-03-10 04:15:00
8:35 PM,44.6,37.4,76,30.48,10.0,WNW,4.6,-,N/A,,Clear,290,2013-03-10 04:35:00
8:55 PM,42.8,37.4,81,30.49,10.0,West,8.1,-,N/A,,Clear,280,2013-03-10 04:55:00
9:15 PM,44.6,37.4,76,30.49,10.0,NW,3.5,-,N/A,,Clear,310,2013-03-10 05:15:00
9:35 PM,44.6,35.6,71,30.49,10.0,West,4.6,-,N/A,,Clear,270,2013-03-10 05:35:00
9:55 PM,42.8,37.4,81,30.50,10.0,North,4.6,-,N/A,,Clear,360,2013-03-10 05:55:00
10:15 PM,42.8,37.4,81,30.50,10.0,WNW,3.5,-,N/A,,Clear,300,2013-03-10 06:15:00
10:35 PM,41.0,35.6,81,30.51,10.0,West,5.8,-,N/A,,Clear,280,2013-03-10 06:35:00
10:55 PM,39.2,35.6,87,30.51,10.0,West,3.5,-,N/A,,Clear,270,2013-03-10 06:55:00
11:15 PM,39.2,35.6,87,30.50,10.0,WNW,5.8,-,N/A,,Clear,290,2013-03-10 07:15:00
11:35 PM,39.2,33.8,81,30.50,10.0,Calm,Calm,-,N/A,,Clear,0,2013-03-10 07:35:00
11:55 PM,35.6,33.8,93,30.50,10.0,SW,4.6,-,N/A,,Clear,220,2013-03-10 07:55:00